Regional Weather Roundup
Issued by NWS

Home | Current Version | Previous Version | Text Only | Print | Product List | Glossary On
Versions: 1 2 3 4 5 6 7 8 9 10 11 12 13 14 15 16 17 18 19 20 21 22 23 24 25 26 27 28 29 30 31 32 33 34 35 36 37 38 39 40 41 42 43 44 45 46 47 48 49 50
000
ASUS45 KTFX 230504
RWRMT
MONTANA HOURLY WEATHER ROUNDUP
NATIONAL WEATHER SERVICE GREAT FALLS MT
1104 PM MDT TUE JUL 22 2014

NOTE: "FAIR" INDICATES FEW OR NO CLOUDS BELOW 12000 FEET WITH NO
SIGNIFICANT WEATHER AND/OR OBSTRUCTIONS TO VISIBILITY.

* THESE STATIONS ARE NOT UNDER NWS QUALITY CONTROL. THEY DO NOT
   REPORT WEATHER SUCH AS PRECIPITATION OR FOG.

MTZ001>007-043-230600-
WEST OF THE DIVIDE
CITY           SKY/WX    TMP DP  RH WIND       PRES   REMARKS
KALISPELL      PTCLDY    57  55  93 NW5       30.14F
MISSOULA       CLOUDY    73  48  41 NW9       30.13R
BUTTE          MOCLDY    63  48  58 E3        30.27S
MULLAN PASS    LGT RAIN  57  48  72 VRB7      30.33R
* ESSEX        N/A       57  55  93 SE1        N/A
* LINCOLN      N/A       65  59  81 S3G10      N/A
* LOOKOUT PASS N/A       59  56  90 SW1        N/A
* POLSON       N/A       60  53  78 N3         N/A
* RONAN APT    PTCLDY    64  55  73 N/A        N/A
* SEELEY LAKE  N/A       66  49  54 S4         N/A
* THOMP F APT  CLOUDY    65  34  32 NE4        N/A
* YAAK HILL    N/A       61  56  84 N/A        N/A
$$

MTZ008-052>055-230600-
SOUTHWEST MONTANA
CITY           SKY/WX    TMP DP  RH WIND       PRES   REMARKS
BOZEMAN        MOCLDY    68  48  49 SW8       30.21R
DILLON         PTCLDY    64  48  56 E8        30.21S
W YELLOWSTONE  CLEAR     55  48  77 CALM      30.36S
* THREE FORKS  PTCLDY    66  63  90 N/A        N/A
* BOULDER HILL N/A       59  45  60 NE1        N/A
* MONIDA PASS  N/A       60  38  44 W2         N/A
* RAYNOLDS PAS N/A       57  41  55 S6         N/A
* WHITEHALL    N/A       68  53  59 NE4        N/A
* WISE RIVER   N/A       61  50  67 SW3        N/A
$$

MTZ009>010-012-014-046-048-049-054-230600-
EAST SLOPES AND CENTRAL MONTANA
CITY           SKY/WX    TMP DP  RH WIND       PRES   REMARKS
CUT BANK       PTCLDY    63  55  75 E6        30.23F
GREAT FALLS    TSTM      72  57  59 E13       30.17S
HELENA         PTCLDY    66  57  73 SW6       30.18S
MALMSTROM AFB  TSTM      72  57  59 SE9       30.19R
* CONRAD       PTCLDY    64  61  90 N/A        N/A
* EAST GLACIER N/A       57  49  75 SE4        N/A
* MONARCH      N/A       60  54  81 NE8G16     N/A
* PENDROY      N/A       67  50  55 E6         N/A
* SAINT MARY   N/A       52  51  96 SE2        N/A
* SWEET GRASS  N/A       65  52  63 SE6        N/A
$$

MTZ011-013-016-021-035-040-045-047-050-051-230600-
NORTH CENTRAL MONTANA
CITY           SKY/WX    TMP DP  RH WIND       PRES   REMARKS
HAVRE          PTCLDY    70  54  57 E7        30.18R
LEWISTOWN      CLOUDY    64  57  78 SE5       30.25S
* CHESTER      N/A       68  54  61 E6         N/A
* DENTON       N/A       65  57  75 S6         N/A
* GEYSER       N/A       64  59  84 SE2        N/A
* JUDITH GAP   N/A       60  57  90 S5         N/A
* LOMA         N/A       74  54  50 NE9        N/A
$$

MTZ017>020-022>027-061-062-230600-
NORTHEAST MONTANA
CITY           SKY/WX    TMP DP  RH WIND       PRES   REMARKS
GLASGOW        CLOUDY    66  52  61 E10       30.22F
GLENDIVE       CLOUDY    66  61  84 CALM      30.26S
JORDAN         CLOUDY    73  54  51 E10       30.21F
SIDNEY         MOCLDY    70  61  73 CALM      30.25S
WOLF POINT     CLOUDY    68  55  63 NE6       30.23S
* BEAVER HILL  N/A       67  61  81 S10        N/A
* CIRCLE       N/A       70  56  61 N/A        N/A
* LINDSAY DVD  N/A       65  60  84 E4         N/A
* NAVAJO       N/A       66  59  78 E3         N/A
* SACO         N/A       65  54  68 NE9        N/A
$$

MTZ028>042-056>058-230600-
SOUTHCENTRAL AND SOUTHEAST MONTANA
CITY           SKY/WX    TMP DP  RH WIND       PRES   REMARKS
BAKER          CLOUDY    63  63 100 CALM      30.29R
BILLINGS       MOCLDY    66  57  73 S6        30.24F
LIVINGSTON     MOCLDY    66  54  65 E20G25    30.28R
MILES CITY     CLOUDY    72  63  73 E7        30.19F
* LAUREL APT   MOCLDY    63  55  75 N/A        N/A
* ROUNDUP APT  CLEAR     70  57  64 NE9        N/A
* ALZADA       N/A       68  59  73 E13G18     N/A
* HYSHAM       N/A       68  61  78 SE8        N/A
* REED POINT   N/A       62  61  97 S2         N/A
* ROSCOE HILL  N/A       61  45  56 SW3        N/A
$$

REGIONAL REPORTS...DAKOTAS
CITY           SKY/WX    TMP DP  RH WIND       PRES   REMARKS
WILLISTON      CLOUDY    73  63  71 SE8       30.23R
DICKINSON      CLEAR     63  59  87 SE6       30.25R
CROSBY         N/A       63  63 100 E6        30.27R
TIOGA          CLOUDY    64  64 100 E3        30.30R
WATFORD CITY   PTCLDY    66  61  84 SE3       30.23R
BISMARCK       CLOUDY    70  63  79 E3        30.24R
GRAND FORKS    CLEAR     63  59  87 CALM      30.23R
FARGO          CLEAR     63  57  81 W5        30.25R
BUFFALO SD     PTCLDY    63  57  81 SE5       30.19S
RAPID CITY     TSTM      68  63  84 E13       30.29F
$$

REGIONAL REPORTS...WYOMING/IDAHO/WASHINGTON
CITY           SKY/WX    TMP DP  RH WIND       PRES   REMARKS
GILLETTE       MOCLDY    73  57  57 NE24G29   30.31R
SHERIDAN       PTCLDY    64  57  78 W7        30.31S
CODY           CLEAR     70  46  42 N8        30.29S
YELLOWSTONE LA CLEAR     52  43  72 CALM      30.48S
SALMON         CLOUDY    70  46  42 SE5       30.10S
MULLAN PASS    LGT RAIN  57  48  72 VRB7      30.33S
SAND POINT     MOCLDY    63  55  75 N3        30.12S
SPOKANE        PTCLDY    70  55  59 NE6       30.09S

$$




USA.gov is the U.S. government's official web portal to all federal, state and local government web resources and services.